This demonstration page uses our WeatherBlox Daily Observations layout. Learn more.

Left ArrowRight Arrow

39.12711, -84.51439

Hourly Observations for July 5, 2017

Temp ( °F °C ) Dew Point ( °F °C ) Humidity (%) Winds ( mph kmh ) Pressure ( in mb ) Visibility ( mi km ) Precip ( " mm )
12:53 am 00:53 Clear with Mist and Fog 71 21.7 70 21.1 96 96 N N/A 30.07 1018 3 5 N/A
1:06 am 01:06 Clear with Mist and Fog 70 21.1 69 20.6 97 97 N N/A 30.06 1018 3 4 N/A
1:13 am 01:13 Clear with Mist and Fog 70 21.1 69 20.6 97 97 N N/A 30.06 1018 3 5 N/A
1:40 am 01:40 Clear with Mist and Fog 69 20.6 69 20.6 100 100 N N/A 30.06 1018 3 4 N/A
1:53 am 01:53 Clear with Mist and Fog 68 20 68 20 100 100 N N/A 30.06 1018 2 3 N/A
2:27 am 02:27 Clear with Mist and Fog 69 20.6 68 20 96 96 N N/A 30.03 1017 2 2 N/A
2:36 am 02:36 Clear with Mist and Fog 69 20.6 69 20.6 100 100 N N/A 30.03 1017 3 4 N/A
2:53 am 02:53 Clear with Mist and Fog 68 20 68 20 100 100 N N/A 30.06 1018 3 4 N/A
3:53 am 03:53 Clear with Mist and Fog 67 19.4 67 19.4 100 100 N N/A 30.06 1018 2 3 N/A
4:03 am 04:03 Clear with Mist and Fog 66 18.9 66 18.9 100 100 N N/A 30.06 1018 1 1 N/A
4:14 am 04:14 Clear with Mist and Fog 66 18.9 66 18.9 100 100 N N/A 30.06 1018 2 3 N/A
4:35 am 04:35 Clear with Mist and Fog 67 19.4 67 19.4 100 100 N N/A 30.06 1018 1 1 N/A
4:45 am 04:45 Clear with Fog 67 19.4 67 19.4 100 100 N N/A 30.06 1018 0 0 N/A
4:50 am 04:50 Clear with Mist and Fog 66 19 66 19 100 100 N N/A 30.06 1018 1 2 N/A
4:53 am 04:53 Clear with Mist and Fog 67 19.4 67 19.4 100 100 N N/A 30.07 1018 2 3 N/A
5:33 am 05:33 Mostly Cloudy with Fog 67 19.4 67 19.4 100 100 N N/A 30.06 1018 1 1 N/A
5:42 am 05:42 Mostly Cloudy with Fog 67 19.4 67 19.4 100 100 N N/A 30.06 1018 0 0 N/A
5:48 am 05:48 Mostly Cloudy with Mist and Fog 66 19 66 19 100 100 N N/A 30.06 1018 1 2 N/A
5:51 am 05:51 Mostly Clear with Mist and Fog 66 19 66 19 100 100 N N/A 30.06 1018 3 4 N/A
5:53 am 05:53 Mostly Clear with Mist and Fog 67 19.4 67 19.4 100 100 ENE 3 6 30.08 1019 3 5 N/A
6:19 am 06:19 Sunny with Mist and Fog 68 20 68 20 100 100 N N/A 30.06 1018 3 4 N/A
6:53 am 06:53 Sunny with Mist and Fog 69 20.6 68 20 96 96 ENE 3 6 30.09 1019 5 8 N/A
7:53 am 07:53 Sunny with Mist and Fog 71 21.7 69 20.6 94 94 NE 3 6 30.10 1019 6 10 N/A
8:53 am 08:53 Sunny 72 22.2 68 20 87 87 NE 5 7 30.11 1020 10 16 N/A
9:53 am 09:53 Sunny 74 23.3 68 20 82 82 NNE 3 6 30.11 1020 10 16 N/A
10:53 am 10:53 Sunny 76 24.4 69 20.6 79 79 N N/A 30.11 1020 10 16 N/A
11:53 am 11:53 Sunny 79 26.1 70 21.1 74 74 N N/A 30.11 1020 10 16 N/A
12:53 pm 12:53 Sunny 83 28.3 71 21.7 67 67 N N/A 30.09 1019 10 16 N/A
1:53 pm 13:53 Mostly Cloudy 85 29.4 72 22.2 65 65 N N/A 30.08 1019 10 16 N/A
2:53 pm 14:53 Mostly Sunny 84 28.9 70 21.1 63 63 VRB 3 6 30.07 1018 10 16 N/A
3:53 pm 15:53 Partly Cloudy 86 30 70 21.1 59 59 ENE 3 6 30.06 1018 10 16 N/A
4:53 pm 16:53 Mostly Cloudy 84 28.9 71 21.7 65 65 N N/A 30.04 1017 10 16 N/A
5:53 pm 17:53 Mostly Cloudy 84 28.9 71 21.7 65 65 ENE 3 6 30.03 1017 10 16 N/A
6:53 pm 18:53 Partly Cloudy 82 27.8 74 23.3 77 77 SE 5 7 30.03 1017 10 16 N/A
7:53 pm 19:53 Mostly Cloudy 78 25.6 69 20.6 74 74 E 10 17 30.04 1017 10 16 N/A
8:53 pm 20:53 Cloudy 73 22.8 69 20.6 87 87 E 3 6 30.04 1017 10 16 N/A
9:53 pm 21:53 Clear with Mist and Fog 71 21.7 71 21.7 100 100 NE 7 11 30.04 1017 6 10 N/A
10:53 pm 22:53 Clear with Mist and Fog 71 21.7 71 21.7 100 100 N N/A 30.05 1018 6 10 N/A
11:53 pm 23:53 Clear with Mist and Fog 71 21.7 71 21.7 100 100 N N/A 30.04 1017 5 8 N/A

Powered by AerisWeather